Date String (YYYY-MM-DD hh:mm:ss) UTC,Instrument flags,absolute air pressure of the measurement (hPa),sample flow rate (lpm),inlet stack bypass flow (lpm),air temperature of the measurement (°C),ambient temperature measured by the external sensor (°C),aerosol sample conditioner tube jacket temperature (°C),OPC LED temperature (°C),internal box temperature (°C),relative humidity of the measurement (%),span deviation,mass concentration of particles derived from Lorenz-Mie calculation of OPC scattering (μg/m³),mass concentration of particles derived from Lorenz-Mie calculation of OPC scattering (μg/m³),mass concentration of particles derived from Lorenz-Mie calculation of OPC scattering (μg/m³)
DateTimeUTC,F1_M11,P_M11,Q1_M11,Q2_M11,T1_M11,T2_M11,T3_M11,T4_M11,T5_M11,U1_M11,ZSPAN_M11,X2_M11,X0_M11,X1_M11
2023-09-12 10:00:00,SystemResetWarning,0835.1,5.00,000.00,029.2,027.7,000.0,037.6,030.7,25.7,-001.3,0005.86,0009.36,0005.34
2023-09-12 10:01:00,SystemResetWarning,0835.2,5.00,000.00,029.2,027.7,000.0,037.6,030.7,25.9,-001.1,0005.96,0009.89,0005.40
2023-09-12 10:02:00,SystemResetWarning,0835.2,5.00,000.00,029.2,027.6,000.0,037.6,030.7,26.1,-001.2,0006.08,0010.27,0005.45
2023-09-12 10:03:00,SystemResetWarning,0835.2,5.01,000.00,029.2,027.6,000.0,037.6,030.7,26.4,-001.2,0006.16,0010.38,0005.50
2023-09-12 10:04:00,SystemResetWarning,0835.2,5.01,000.00,029.2,027.6,000.0,037.6,030.7,26.7,-001.0,0006.21,0010.32,0005.54
2023-09-12 10:05:00,SystemResetWarning,0835.2,5.00,000.00,029.2,027.7,000.0,037.6,030.7,26.8,-001.0,0006.23,0010.45,0005.56
2023-09-12 10:06:00,SystemResetWarning,0835.2,5.00,000.00,029.2,027.7,000.0,037.6,030.7,26.8,-001.0,0006.22,0010.66,0005.59
2023-09-12 10:07:00,SystemResetWarning,0835.2,5.00,000.00,029.2,027.7,000.0,037.6,030.7,26.9,-000.5,0006.23,0011.30,0005.60
2023-09-12 10:08:00,SystemResetWarning,0835.2,4.99,000.00,029.2,027.7,000.0,037.6,030.7,27.0,-000.4,0006.26,0011.75,0005.60
2023-09-12 10:09:00,SystemResetWarning,0835.2,4.99,000.00,029.2,027.7,000.0,037.6,030.7,27.0,-000.4,0006.28,0012.17,0005.60
2023-09-12 10:10:00,SystemResetWarning,0835.2,5.03,000.00,029.2,027.7,000.0,037.6,030.7,27.0,-000.6,0006.30,0012.52,0005.59
2023-09-12 10:11:00,SystemResetWarning,0835.2,4.99,000.00,029.2,027.7,000.0,037.6,030.7,27.0,-000.8,0006.25,0012.41,0005.55
2023-09-12 10:12:00,SystemResetWarning,0835.2,4.99,000.00,029.2,027.7,000.0,037.6,030.8,27.0,-001.1,0006.14,0011.78,0005.48
2023-09-12 10:13:00,SystemResetWarning,0835.2,5.00,000.00,029.2,027.7,000.0,037.6,030.7,26.9,-000.8,0006.04,0011.47,0005.43
2023-09-12 10:14:00,SystemResetWarning,0835.2,5.01,000.00,029.2,027.7,000.0,037.5,030.7,26.9,-000.7,0005.93,0011.19,0005.37
2023-09-12 10:15:00,SystemResetWarning,0835.2,5.01,000.00,029.2,027.7,000.0,037.5,030.7,27.0,-000.8,0005.91,0011.12,0005.33
2023-09-12 10:16:00,SystemResetWarning,0835.2,4.99,000.00,029.2,027.7,000.0,037.5,030.7,27.1,-001.0,0005.87,0011.70,0005.30
2023-09-12 10:17:00,SystemResetWarning,0835.2,5.00,000.00,029.2,027.7,000.0,037.5,030.6,27.2,-001.1,0005.87,0012.03,0005.27
2023-09-12 10:18:00,SystemResetWarning,0835.2,5.00,000.00,029.2,027.6,000.0,037.5,030.6,27.3,-001.4,0005.83,0011.78,0005.26
2023-09-12 10:19:00,SystemResetWarning,0835.2,5.01,000.00,029.1,027.6,000.0,037.5,030.6,27.4,-001.6,0005.82,0011.55,0005.28
2023-09-12 10:20:00,SystemResetWarning,0835.1,5.01,000.00,029.1,027.6,000.0,037.5,030.6,27.4,-001.3,0005.81,0011.34,0005.30
2023-09-12 10:21:00,SystemResetWarning,0835.1,4.99,000.00,029.1,027.6,000.0,037.5,030.6,27.6,-000.8,0005.82,0010.80,0005.31
2023-09-12 10:22:00,SystemResetWarning,0835.1,4.99,000.00,029.1,027.6,000.0,037.5,030.6,27.7,-000.4,0005.84,0010.79,0005.35
2023-09-12 10:23:00,SystemResetWarning,0835.1,5.00,000.00,029.1,027.6,000.0,037.5,030.6,27.8,-000.3,0005.89,0010.85,0005.40
2023-09-12 10:24:00,SystemResetWarning,0835.1,5.00,000.00,029.1,027.6,000.0,037.5,030.6,27.8,-000.4,0005.92,0010.86,0005.45
2023-09-12 10:25:00,SystemResetWarning,0835.1,5.00,000.00,029.1,027.6,000.0,037.5,030.6,27.9,-000.7,0005.97,0011.02,0005.49
2023-09-12 10:26:00,SystemResetWarning,0835.1,5.01,000.00,029.1,027.6,000.0,037.5,030.5,27.9,-000.5,0005.96,0011.15,0005.52
2023-09-12 10:27:00,SystemResetWarning,0835.1,5.01,000.00,029.1,027.6,000.0,037.5,030.5,27.9,-000.9,0005.97,0010.62,0005.55
2023-09-12 10:28:00,SystemResetWarning,0835.1,5.00,000.00,029.1,027.6,000.0,037.5,030.5,28.0,-000.8,0005.97,0010.34,0005.56
2023-09-12 10:29:00,SystemResetWarning,0835.1,5.00,000.00,029.1,027.6,000.0,037.5,030.6,27.9,-000.8,0005.94,0009.97,0005.56
2023-09-12 10:30:00,SystemResetWarning,0835.1,5.00,000.00,029.1,027.6,000.0,037.5,030.6,27.9,-000.7,0005.92,0009.49,0005.55
2023-09-12 10:31:00,SystemResetWarning,0835.1,5.00,000.00,029.1,027.6,000.0,037.5,030.6,27.8,-000.8,0005.91,0009.78,0005.54
2023-09-12 10:32:00,SystemResetWarning,0835.1,5.00,000.00,029.1,027.6,000.0,037.5,030.6,27.8,-000.8,0005.86,0010.03,0005.54
2023-09-12 10:33:00,SystemResetWarning,0835.1,5.00,000.00,029.1,027.6,000.0,037.5,030.6,27.8,-001.2,0005.86,0010.04,0005.55
2023-09-12 10:34:00,SystemResetWarning,0835.1,5.00,000.00,029.1,027.6,000.0,037.5,030.6,27.7,-001.4,0005.88,0010.39,0005.56
2023-09-12 10:35:00,SystemResetWarning,0835.0,5.00,000.00,029.1,027.6,000.0,037.5,030.6,27.7,-001.5,0005.92,0010.55,0005.57
2023-09-12 10:36:00,SystemResetWarning,0835.0,5.00,000.00,029.1,027.6,000.0,037.5,030.5,27.7,-001.4,0005.95,0010.64,0005.57
2023-09-12 10:37:00,SystemResetWarning,0835.0,5.01,000.00,029.1,027.6,000.0,037.5,030.5,27.6,-001.2,0006.01,0010.44,0005.60
2023-09-12 10:38:00,SystemResetWarning,0835.0,5.01,000.00,029.1,027.6,000.0,037.5,030.6,27.6,-000.8,0006.04,0010.67,0005.62
2023-09-12 10:39:00,SystemResetWarning,0835.0,5.01,000.00,029.1,027.5,000.0,037.5,030.5,27.6,-000.9,0006.04,0010.44,0005.65
2023-09-12 10:40:00,SystemResetWarning,0835.0,5.00,000.00,029.0,027.5,000.0,037.5,030.5,27.6,-001.0,0006.10,0010.65,0005.68
2023-09-12 10:41:00,SystemResetWarning,0835.0,4.99,000.00,029.0,027.5,000.0,037.5,030.5,27.7,-000.9,0006.15,0011.10,0005.72
2023-09-12 10:42:00,SystemResetWarning,0834.9,4.99,000.00,029.0,027.5,000.0,037.5,030.5,27.8,-000.9,0006.24,0011.80,0005.77
2023-09-12 10:43:00,SystemResetWarning,0834.9,5.00,000.00,029.0,027.5,000.0,037.5,030.5,27.8,-001.1,0006.28,0011.69,0005.82
2023-09-12 10:44:00,SystemResetWarning,0834.9,5.00,000.00,029.0,027.5,000.0,037.5,030.5,27.9,-000.8,0006.30,0011.66,0005.86
2023-09-12 10:45:00,SystemResetWarning,0834.8,5.00,000.00,029.0,027.5,000.0,037.5,030.5,27.8,-000.6,0006.33,0011.46,0005.90
2023-09-12 10:46:00,SystemResetWarning,0835.1,5.00,000.00,029.0,027.5,000.0,037.5,030.5,27.7,-000.7,0006.36,0011.36,0005.94
2023-09-12 10:47:00,SystemResetWarning,0835.3,4.99,000.00,029.0,027.5,000.0,037.5,030.5,27.7,-000.6,0006.40,0011.27,0005.99
2023-09-12 10:48:00,SystemResetWarning,0835.3,5.00,000.00,029.0,027.5,000.0,037.4,030.5,27.7,-000.3,0006.45,0011.39,0006.03
2023-09-12 10:49:00,SystemResetWarning,0835.4,5.02,000.00,029.0,027.5,000.0,037.4,030.5,27.8,-000.5,0006.53,0011.37,0006.10
2023-09-12 10:50:00,SystemResetWarning,0835.3,4.99,000.00,029.0,027.5,000.0,037.4,030.5,27.9,-000.6,0006.63,0012.59,0006.20
2023-09-12 10:51:00,SystemResetWarning,0835.4,4.99,000.00,029.0,027.5,000.0,037.4,030.4,27.8,-000.9,0006.70,0013.74,0006.27
2023-09-12 10:52:00,SystemResetWarning,0835.4,5.02,000.00,029.0,027.5,000.0,037.4,030.5,27.6,-001.4,0006.78,0013.95,0006.33
2023-09-12 10:53:00,SystemResetWarning,0835.3,5.00,000.00,029.0,027.5,000.0,037.4,030.5,27.6,-001.4,0006.81,0013.63,0006.36
2023-09-12 10:54:00,SystemResetWarning,0835.4,4.99,000.00,029.0,027.5,000.0,037.4,030.5,27.5,-001.0,0006.89,0013.54,0006.41
2023-09-12 10:55:00,SystemResetWarning,0835.4,4.99,000.00,029.0,027.5,000.0,037.4,030.5,27.4,-001.0,0007.01,0014.08,0006.45
2023-09-12 10:56:00,SystemResetWarning,0835.4,5.00,000.00,029.0,027.5,000.0,037.4,030.5,27.3,-001.2,0007.10,0015.60,0006.50
2023-09-12 10:57:00,SystemResetWarning,0835.4,5.00,000.00,029.0,027.5,000.0,037.4,030.5,27.2,-001.2,0007.18,0016.15,0006.54
2023-09-12 10:58:00,SystemResetWarning,0835.4,5.01,000.00,029.0,027.5,000.0,037.4,030.5,27.2,-001.1,0007.28,0016.85,0006.58
2023-09-12 10:59:00,SystemResetWarning,0835.4,5.00,000.00,029.0,027.5,000.0,037.4,030.5,27.3,-001.2,0007.31,0017.02,0006.61
